Time,TemperatureF,DewpointF,PressureIn,WindDirection,WindDirectionDegrees,WindSpeedMPH,WindSpeedGustMPH,Humidity,HourlyPrecipIn,Conditions,Clouds,dailyrainin,SoftwareType,DateUTC
2013-11-06 00:48:00,36.1,30.5,28.43,East,86,0.0,0.0,80,0.00,,,0.41,WUHU216DAVISWMX,2013-11-06 05:48:00,
2013-11-06 00:53:00,35.6,30.1,28.42,East,88,0.0,0.0,80,0.00,,,0.41,WUHU216DAVISWMX,2013-11-06 05:53:00,
2013-11-06 00:58:00,35.2,30.0,28.42,East,88,0.0,0.0,81,0.00,,,0.41,WUHU216DAVISWMX,2013-11-06 05:58:00,
2013-11-06 01:03:00,35.1,30.2,28.42,East,88,0.0,3.0,82,0.00,,,0.41,WUHU216DAVISWMX,2013-11-06 06:03:00,
2013-11-06 01:08:00,34.9,30.0,28.42,East,88,0.0,3.0,82,0.00,,,0.41,WUHU216DAVISWMX,2013-11-06 06:08:00,
2013-11-06 01:13:00,35.1,30.4,28.43,East,88,0.0,0.0,83,0.00,,,0.41,WUHU216DAVISWMX,2013-11-06 06:13:00,
2013-11-06 01:18:00,34.8,29.9,28.42,East,88,0.0,0.0,82,0.00,,,0.41,WUHU216DAVISWMX,2013-11-06 06:18:00,
2013-11-06 01:23:00,33.8,28.6,28.42,East,88,0.0,0.0,81,0.00,,,0.41,WUHU216DAVISWMX,2013-11-06 06:23:00,
2013-11-06 01:28:00,32.7,27.5,28.42,East,88,0.0,0.0,81,0.00,,,0.41,WUHU216DAVISWMX,2013-11-06 06:28:00,
2013-11-06 01:33:00,32.2,27.3,28.41,East,88,0.0,0.0,82,0.00,,,0.41,WUHU216DAVISWMX,2013-11-06 06:33:00,
2013-11-06 01:38:00,31.8,27.2,28.41,East,88,0.0,0.0,83,0.00,,,0.41,WUHU216DAVISWMX,2013-11-06 06:38:00,
2013-11-06 01:43:00,31.6,27.3,28.41,East,88,0.0,0.0,84,0.00,,,0.41,WUHU216DAVISWMX,2013-11-06 06:43:00,
2013-11-06 01:48:00,31.7,27.7,28.41,East,88,0.0,0.0,85,0.00,,,0.41,WUHU216DAVISWMX,2013-11-06 06:48:00,
2013-11-06 01:53:00,31.5,27.5,28.41,East,88,0.0,0.0,85,0.00,,,0.41,WUHU216DAVISWMX,2013-11-06 06:53:00,
2013-11-06 01:58:00,31.4,27.7,28.41,East,88,0.0,0.0,86,0.00,,,0.41,WUHU216DAVISWMX,2013-11-06 06:58:00,
2013-11-06 02:03:00,31.4,27.7,28.41,East,88,0.0,0.0,86,0.00,,,0.41,WUHU216DAVISWMX,2013-11-06 07:03:00,
2013-11-06 02:08:00,31.1,27.4,28.41,East,88,0.0,0.0,86,0.00,,,0.41,WUHU216DAVISWMX,2013-11-06 07:08:00,
2013-11-06 02:13:00,30.6,26.9,28.41,East,88,0.0,0.0,86,0.00,,,0.41,WUHU216DAVISWMX,2013-11-06 07:13:00,
2013-11-06 02:18:00,30.1,26.4,28.40,East,88,0.0,0.0,86,0.00,,,0.41,WUHU216DAVISWMX,2013-11-06 07:18:00,
2013-11-06 02:23:00,29.9,26.2,28.40,East,88,0.0,0.0,86,0.00,,,0.41,WUHU216DAVISWMX,2013-11-06 07:23:00,
2013-11-06 02:28:00,29.7,26.3,28.40,East,88,0.0,0.0,87,0.00,,,0.41,WUHU216DAVISWMX,2013-11-06 07:28:00,
2013-11-06 02:33:00,29.7,26.3,28.40,East,88,0.0,0.0,87,0.00,,,0.41,WUHU216DAVISWMX,2013-11-06 07:33:00,
2013-11-06 02:38:00,29.8,26.6,28.40,East,88,0.0,0.0,88,0.00,,,0.41,WUHU216DAVISWMX,2013-11-06 07:38:00,
2013-11-06 02:43:00,29.9,26.5,28.39,East,88,0.0,0.0,87,0.00,,,0.41,WUHU216DAVISWMX,2013-11-06 07:43:00,
2013-11-06 02:48:00,29.7,26.5,28.39,East,88,0.0,0.0,88,0.00,,,0.41,WUHU216DAVISWMX,2013-11-06 07:48:00,
2013-11-06 02:53:00,29.9,26.5,28.39,East,88,0.0,0.0,87,0.00,,,0.41,WUHU216DAVISWMX,2013-11-06 07:53:00,
2013-11-06 02:58:00,30.0,26.8,28.39,East,88,0.0,0.0,88,0.00,,,0.41,WUHU216DAVISWMX,2013-11-06 07:58:00,
2013-11-06 03:03:00,30.6,28.0,28.39,East,88,0.0,0.0,90,0.00,,,0.41,WUHU216DAVISWMX,2013-11-06 08:03:00,
2013-11-06 03:08:00,30.8,28.2,28.38,East,88,0.0,0.0,90,0.00,,,0.41,WUHU216DAVISWMX,2013-11-06 08:08:00,
2013-11-06 03:13:00,30.9,28.3,28.38,East,88,0.0,0.0,90,0.00,,,0.41,WUHU216DAVISWMX,2013-11-06 08:13:00,
2013-11-06 03:19:00,30.7,27.8,28.38,East,88,0.0,0.0,89,0.00,,,0.41,WUHU216DAVISWMX,2013-11-06 08:19:00,
2013-11-06 03:24:00,30.6,28.0,28.38,East,88,0.0,0.0,90,0.00,,,0.41,WUHU216DAVISWMX,2013-11-06 08:24:00,
2013-11-06 03:29:00,30.3,27.4,28.38,East,88,0.0,0.0,89,0.00,,,0.41,WUHU216DAVISWMX,2013-11-06 08:29:00,
2013-11-06 03:33:00,30.3,27.7,28.37,East,88,0.0,0.0,90,0.00,,,0.41,WUHU216DAVISWMX,2013-11-06 08:33:00,
2013-11-06 03:38:00,30.0,27.1,28.37,East,88,0.0,0.0,89,0.00,,,0.41,WUHU216DAVISWMX,2013-11-06 08:38:00,
2013-11-06 03:43:00,29.8,26.9,28.37,East,87,0.0,0.0,89,0.00,,,0.41,WUHU216DAVISWMX,2013-11-06 08:43:00,
2013-11-06 03:48:00,29.4,26.8,28.36,East,87,0.0,0.0,90,0.00,,,0.41,WUHU216DAVISWMX,2013-11-06 08:48:00,
2013-11-06 03:53:00,29.3,26.7,28.36,East,87,0.0,0.0,90,0.00,,,0.41,WUHU216DAVISWMX,2013-11-06 08:53:00,
2013-11-06 03:59:00,29.4,26.8,28.36,East,87,0.0,0.0,90,0.00,,,0.41,WUHU216DAVISWMX,2013-11-06 08:59:00,
2013-11-06 04:04:00,29.3,26.7,28.36,East,87,0.0,0.0,90,0.00,,,0.41,WUHU216DAVISWMX,2013-11-06 09:04:00,
2013-11-06 04:09:00,29.1,26.5,28.37,East,87,0.0,0.0,90,0.00,,,0.41,WUHU216DAVISWMX,2013-11-06 09:09:00,
2013-11-06 04:14:00,29.0,26.4,28.37,East,87,0.0,0.0,90,0.00,,,0.41,WUHU216DAVISWMX,2013-11-06 09:14:00,
2013-11-06 04:19:00,29.0,26.4,28.36,East,87,0.0,0.0,90,0.00,,,0.41,WUHU216DAVISWMX,2013-11-06 09:19:00,
2013-11-06 04:24:00,28.9,26.3,28.37,East,87,0.0,0.0,90,0.00,,,0.41,WUHU216DAVISWMX,2013-11-06 09:24:00,
2013-11-06 04:29:00,28.9,26.6,28.36,East,87,0.0,0.0,91,0.00,,,0.41,WUHU216DAVISWMX,2013-11-06 09:29:00,
2013-11-06 04:34:00,29.0,26.4,28.36,East,87,0.0,0.0,90,0.00,,,0.41,WUHU216DAVISWMX,2013-11-06 09:34:00,
2013-11-06 04:39:00,29.2,26.9,28.36,East,87,0.0,0.0,91,0.00,,,0.41,WUHU216DAVISWMX,2013-11-06 09:39:00,
2013-11-06 04:44:00,29.3,27.2,28.36,East,87,0.0,0.0,92,0.00,,,0.41,WUHU216DAVISWMX,2013-11-06 09:44:00,
2013-11-06 04:49:00,29.4,27.3,28.36,East,87,0.0,0.0,92,0.00,,,0.41,WUHU216DAVISWMX,2013-11-06 09:49:00,
2013-11-06 04:54:00,29.7,27.6,28.36,East,87,0.0,0.0,92,0.00,,,0.41,WUHU216DAVISWMX,2013-11-06 09:54:00,
2013-11-06 04:59:00,29.9,27.8,28.36,East,87,0.0,0.0,92,0.00,,,0.41,WUHU216DAVISWMX,2013-11-06 09:59:00,
2013-11-06 05:04:00,29.9,27.8,28.36,East,87,0.0,0.0,92,0.00,,,0.41,WUHU216DAVISWMX,2013-11-06 10:04:00,
2013-11-06 05:09:00,29.8,27.4,28.35,East,87,0.0,0.0,91,0.00,,,0.41,WUHU216DAVISWMX,2013-11-06 10:09:00,
2013-11-06 05:14:00,29.8,27.7,28.36,East,87,0.0,0.0,92,0.00,,,0.41,WUHU216DAVISWMX,2013-11-06 10:14:00,
2013-11-06 05:19:00,29.9,27.8,28.36,East,87,0.0,0.0,92,0.00,,,0.41,WUHU216DAVISWMX,2013-11-06 10:19:00,
2013-11-06 05:24:00,30.1,28.0,28.36,East,87,0.0,0.0,92,0.00,,,0.41,WUHU216DAVISWMX,2013-11-06 10:24:00,
2013-11-06 05:29:00,30.1,28.0,28.36,East,87,0.0,0.0,92,0.00,,,0.41,WUHU216DAVISWMX,2013-11-06 10:29:00,
2013-11-06 05:34:00,29.9,27.8,28.36,East,87,0.0,0.0,92,0.00,,,0.41,WUHU216DAVISWMX,2013-11-06 10:34:00,
2013-11-06 05:39:00,29.7,27.6,28.35,East,87,0.0,0.0,92,0.00,,,0.41,WUHU216DAVISWMX,2013-11-06 10:39:00,
2013-11-06 05:44:00,29.3,27.2,28.35,East,87,0.0,0.0,92,0.00,,,0.41,WUHU216DAVISWMX,2013-11-06 10:44:00,
2013-11-06 05:49:00,29.0,26.9,28.36,East,87,0.0,0.0,92,0.00,,,0.41,WUHU216DAVISWMX,2013-11-06 10:49:00,
2013-11-06 05:54:00,28.9,26.8,28.35,East,87,0.0,0.0,92,0.00,,,0.41,WUHU216DAVISWMX,2013-11-06 10:54:00,
2013-11-06 05:59:00,29.0,26.9,28.35,East,87,0.0,0.0,92,0.00,,,0.41,WUHU216DAVISWMX,2013-11-06 10:59:00,
2013-11-06 06:04:00,29.2,27.4,28.35,East,87,0.0,0.0,93,0.00,,,0.41,WUHU216DAVISWMX,2013-11-06 11:04:00,
2013-11-06 06:09:00,29.5,27.9,28.35,East,87,0.0,0.0,94,0.00,,,0.41,WUHU216DAVISWMX,2013-11-06 11:09:00,
2013-11-06 06:14:00,29.6,27.8,28.35,East,87,0.0,0.0,93,0.00,,,0.41,WUHU216DAVISWMX,2013-11-06 11:14:00,
2013-11-06 06:19:00,29.4,27.6,28.35,East,87,0.0,0.0,93,0.00,,,0.41,WUHU216DAVISWMX,2013-11-06 11:19:00,
2013-11-06 06:24:00,28.8,26.7,28.35,East,87,0.0,0.0,92,0.00,,,0.41,WUHU216DAVISWMX,2013-11-06 11:24:00,
2013-11-06 06:29:00,28.5,26.4,28.35,East,87,0.0,0.0,92,0.00,,,0.41,WUHU216DAVISWMX,2013-11-06 11:29:00,
2013-11-06 06:34:00,28.2,26.4,28.35,East,87,0.0,0.0,93,0.00,,,0.41,WUHU216DAVISWMX,2013-11-06 11:34:00,
2013-11-06 06:39:00,28.2,26.4,28.35,East,87,0.0,0.0,93,0.00,,,0.41,WUHU216DAVISWMX,2013-11-06 11:39:00,
2013-11-06 06:44:00,28.5,26.9,28.35,East,87,0.0,0.0,94,0.00,,,0.41,WUHU216DAVISWMX,2013-11-06 11:44:00,
2013-11-06 06:49:00,29.0,27.7,28.34,East,87,0.0,0.0,95,0.00,,,0.41,WUHU216DAVISWMX,2013-11-06 11:49:00,
2013-11-06 06:54:00,29.7,28.1,28.34,East,87,0.0,0.0,94,0.00,,,0.41,WUHU216DAVISWMX,2013-11-06 11:54:00,
2013-11-06 06:59:00,29.9,28.6,28.34,East,87,0.0,0.0,95,0.00,,,0.41,WUHU216DAVISWMX,2013-11-06 11:59:00,
2013-11-06 07:04:00,30.2,28.9,28.34,East,87,0.0,0.0,95,0.00,,,0.41,WUHU216DAVISWMX,2013-11-06 12:04:00,
2013-11-06 07:09:00,30.5,29.2,28.34,East,87,0.0,0.0,95,0.00,,,0.41,WUHU216DAVISWMX,2013-11-06 12:09:00,
2013-11-06 07:14:00,30.8,29.8,28.34,East,87,0.0,0.0,96,0.00,,,0.41,WUHU216DAVISWMX,2013-11-06 12:14:00,
2013-11-06 07:19:00,31.0,30.0,28.34,East,87,0.0,0.0,96,0.00,,,0.41,WUHU216DAVISWMX,2013-11-06 12:19:00,
2013-11-06 07:24:00,31.4,30.4,28.34,East,87,0.0,0.0,96,0.00,,,0.41,WUHU216DAVISWMX,2013-11-06 12:24:00,
2013-11-06 07:29:00,31.9,30.9,28.34,East,87,0.0,0.0,96,0.00,,,0.41,WUHU216DAVISWMX,2013-11-06 12:29:00,
2013-11-06 07:34:00,31.6,30.3,28.35,East,88,0.0,0.0,95,0.00,,,0.41,WUHU216DAVISWMX,2013-11-06 12:34:00,
2013-11-06 07:39:00,31.7,30.7,28.35,East,87,0.0,0.0,96,0.00,,,0.41,WUHU216DAVISWMX,2013-11-06 12:39:00,
2013-11-06 07:44:00,31.7,30.4,28.34,East,87,0.0,0.0,95,0.00,,,0.41,WUHU216DAVISWMX,2013-11-06 12:44:00,
2013-11-06 07:49:00,31.7,30.4,28.34,East,87,0.0,0.0,95,0.00,,,0.41,WUHU216DAVISWMX,2013-11-06 12:49:00,
2013-11-06 07:54:00,31.7,30.4,28.34,East,87,0.0,0.0,95,0.00,,,0.41,WUHU216DAVISWMX,2013-11-06 12:54:00,
2013-11-06 07:59:00,32.0,30.7,28.34,East,87,0.0,0.0,95,0.00,,,0.41,WUHU216DAVISWMX,2013-11-06 12:59:00,
2013-11-06 08:04:00,32.7,31.4,28.33,East,87,0.0,0.0,95,0.00,,,0.41,WUHU216DAVISWMX,2013-11-06 13:04:00,
2013-11-06 08:09:00,33.7,32.4,28.34,East,87,0.0,0.0,95,0.00,,,0.41,WUHU216DAVISWMX,2013-11-06 13:09:00,
2013-11-06 08:14:00,34.6,33.3,28.34,East,87,0.0,0.0,95,0.00,,,0.41,WUHU216DAVISWMX,2013-11-06 13:14:00,
2013-11-06 08:19:00,35.3,33.7,28.33,East,87,0.0,0.0,94,0.00,,,0.41,WUHU216DAVISWMX,2013-11-06 13:19:00,
2013-11-06 08:24:00,36.0,33.9,28.33,East,87,0.0,0.0,92,0.00,,,0.41,WUHU216DAVISWMX,2013-11-06 13:24:00,
2013-11-06 08:29:00,35.9,33.2,28.33,East,87,0.0,0.0,90,0.00,,,0.41,WUHU216DAVISWMX,2013-11-06 13:29:00,
2013-11-06 08:34:00,36.2,33.2,28.33,East,87,0.0,0.0,89,0.00,,,0.41,WUHU216DAVISWMX,2013-11-06 13:34:00,
2013-11-06 08:39:00,36.6,33.6,28.33,East,87,0.0,0.0,89,0.00,,,0.41,WUHU216DAVISWMX,2013-11-06 13:39:00,
2013-11-06 08:44:00,37.5,34.5,28.33,East,87,0.0,0.0,89,0.00,,,0.41,WUHU216DAVISWMX,2013-11-06 13:44:00,
2013-11-06 08:49:00,38.4,35.1,28.33,East,87,0.0,0.0,88,0.00,,,0.41,WUHU216DAVISWMX,2013-11-06 13:49:00,
2013-11-06 08:54:00,39.1,35.5,28.33,East,88,0.0,0.0,87,0.00,,,0.41,WUHU216DAVISWMX,2013-11-06 13:54:00,
2013-11-06 08:59:00,40.1,36.5,28.33,East,88,0.0,0.0,87,0.00,,,0.41,WUHU216DAVISWMX,2013-11-06 13:59:00,
2013-11-06 09:04:00,41.4,37.5,28.33,East,87,0.0,0.0,86,0.00,,,0.41,WUHU216DAVISWMX,2013-11-06 14:04:00,
2013-11-06 09:09:00,42.5,38.0,28.32,East,85,0.0,0.0,84,0.00,,,0.41,WUHU216DAVISWMX,2013-11-06 14:09:00,
2013-11-06 09:14:00,43.3,38.5,28.32,East,85,0.0,0.0,83,0.00,,,0.41,WUHU216DAVISWMX,2013-11-06 14:14:00,
2013-11-06 09:19:00,43.7,38.9,28.32,East,85,0.0,0.0,83,0.00,,,0.41,WUHU216DAVISWMX,2013-11-06 14:19:00,
2013-11-06 09:24:00,44.4,39.3,28.32,East,84,0.0,0.0,82,0.00,,,0.41,WUHU216DAVISWMX,2013-11-06 14:24:00,
2013-11-06 09:29:00,45.6,40.4,28.32,East,85,0.0,0.0,82,0.00,,,0.41,WUHU216DAVISWMX,2013-11-06 14:29:00,
2013-11-06 09:34:00,47.0,41.2,28.32,East,84,0.0,0.0,80,0.00,,,0.41,WUHU216DAVISWMX,2013-11-06 14:34:00,
2013-11-06 09:39:00,48.4,41.9,28.32,East,84,0.0,0.0,78,0.00,,,0.41,WUHU216DAVISWMX,2013-11-06 14:39:00,
2013-11-06 09:44:00,49.6,42.1,28.32,East,84,0.0,0.0,75,0.00,,,0.41,WUHU216DAVISWMX,2013-11-06 14:44:00,
2013-11-06 09:49:00,50.3,41.7,28.32,East,84,0.0,0.0,72,0.00,,,0.41,WUHU216DAVISWMX,2013-11-06 14:49:00,
2013-11-06 09:54:00,51.3,43.0,28.31,East,84,0.0,0.0,73,0.00,,,0.41,WUHU216DAVISWMX,2013-11-06 14:54:00,
2013-11-06 09:59:00,52.1,43.4,28.31,East,84,0.0,0.0,72,0.00,,,0.41,WUHU216DAVISWMX,2013-11-06 14:59:00,
2013-11-06 10:04:00,52.7,43.3,28.31,East,84,0.0,0.0,70,0.00,,,0.41,WUHU216DAVISWMX,2013-11-06 15:04:00,
2013-11-06 10:09:00,53.4,44.0,28.31,East,84,0.0,0.0,70,0.00,,,0.41,WUHU216DAVISWMX,2013-11-06 15:09:00,
2013-11-06 10:14:00,53.8,43.6,28.31,East,84,0.0,3.0,68,0.00,,,0.41,WUHU216DAVISWMX,2013-11-06 15:14:00,
2013-11-06 10:19:00,54.6,43.6,28.31,East,84,0.0,3.0,66,0.00,,,0.41,WUHU216DAVISWMX,2013-11-06 15:19:00,
2013-11-06 10:24:00,55.4,44.0,28.31,SSE,163,0.0,4.0,65,0.00,,,0.41,WUHU216DAVISWMX,2013-11-06 15:24:00,
2013-11-06 10:29:00,56.1,44.6,28.30,SW,227,7.0,7.0,65,0.00,,,0.41,WUHU216DAVISWMX,2013-11-06 15:29:00,
2013-11-06 10:34:00,56.2,44.7,28.31,South,190,0.0,7.0,65,0.00,,,0.41,WUHU216DAVISWMX,2013-11-06 15:34:00,
2013-11-06 10:39:00,57.5,44.7,28.30,SSW,209,0.0,7.0,62,0.00,,,0.41,WUHU216DAVISWMX,2013-11-06 15:39:00,
2013-11-06 10:44:00,58.1,44.4,28.30,WSW,243,3.0,7.0,60,0.00,,,0.41,WUHU216DAVISWMX,2013-11-06 15:44:00,
2013-11-06 10:49:00,58.4,44.7,28.30,SW,220,0.0,12.0,60,0.00,,,0.41,WUHU216DAVISWMX,2013-11-06 15:49:00,
2013-11-06 10:54:00,58.7,45.0,28.30,South,177,1.0,12.0,60,0.00,,,0.41,WUHU216DAVISWMX,2013-11-06 15:54:00,
2013-11-06 10:59:00,59.6,44.9,28.30,South,171,7.0,16.0,58,0.00,,,0.41,WUHU216DAVISWMX,2013-11-06 15:59:00,
2013-11-06 11:04:00,59.7,44.1,28.29,SSW,209,0.0,18.0,56,0.00,,,0.41,WUHU216DAVISWMX,2013-11-06 16:04:00,
2013-11-06 11:09:00,59.6,43.0,28.29,SSW,202,0.0,18.0,54,0.00,,,0.41,WUHU216DAVISWMX,2013-11-06 16:09:00,
2013-11-06 11:14:00,59.6,42.5,28.29,SSW,192,6.0,17.0,53,0.00,,,0.41,WUHU216DAVISWMX,2013-11-06 16:14:00,
2013-11-06 11:19:00,60.0,42.9,28.28,South,188,6.0,17.0,53,0.00,,,0.41,WUHU216DAVISWMX,2013-11-06 16:19:00,
2013-11-06 11:24:00,60.2,42.0,28.28,SE,141,8.0,17.0,51,0.00,,,0.41,WUHU216DAVISWMX,2013-11-06 16:24:00,
2013-11-06 11:29:00,60.5,42.3,28.28,SSW,204,7.0,17.0,51,0.00,,,0.41,WUHU216DAVISWMX,2013-11-06 16:29:00,
2013-11-06 11:34:00,61.3,42.5,28.28,SSW,213,0.0,10.0,50,0.00,,,0.41,WUHU216DAVISWMX,2013-11-06 16:34:00,
2013-11-06 11:39:00,61.4,42.1,28.28,SSE,154,0.0,10.0,49,0.00,,,0.41,WUHU216DAVISWMX,2013-11-06 16:39:00,
2013-11-06 11:44:00,62.5,42.5,28.28,SW,235,0.0,11.0,48,0.00,,,0.41,WUHU216DAVISWMX,2013-11-06 16:44:00,
2013-11-06 11:49:00,62.4,43.0,28.27,WSW,237,0.0,13.0,49,0.00,,,0.41,WUHU216DAVISWMX,2013-11-06 16:49:00,
2013-11-06 11:54:00,62.0,43.2,28.27,SW,221,1.0,13.0,50,0.00,,,0.41,WUHU216DAVISWMX,2013-11-06 16:54:00,
2013-11-06 11:59:00,62.5,44.2,28.27,SSE,152,0.0,12.0,51,0.00,,,0.41,WUHU216DAVISWMX,2013-11-06 16:59:00,
2013-11-06 12:04:00,62.8,44.4,28.27,South,176,6.0,13.0,51,0.00,,,0.41,WUHU216DAVISWMX,2013-11-06 17:04:00,
2013-11-06 12:09:00,63.2,44.8,28.26,SW,215,8.0,13.0,51,0.00,,,0.41,WUHU216DAVISWMX,2013-11-06 17:09:00,
2013-11-06 12:14:00,63.7,45.3,28.26,SW,215,0.0,8.0,51,0.00,,,0.41,WUHU216DAVISWMX,2013-11-06 17:14:00,
2013-11-06 12:19:00,63.7,44.2,28.25,South,176,6.0,12.0,49,0.00,,,0.41,WUHU216DAVISWMX,2013-11-06 17:19:00,
2013-11-06 12:24:00,63.4,43.9,28.26,SSE,164,15.0,15.0,49,0.00,,,0.41,WUHU216DAVISWMX,2013-11-06 17:24:00,
2013-11-06 12:29:00,63.1,43.6,28.25,SSE,152,0.0,16.0,49,0.00,,,0.41,WUHU216DAVISWMX,2013-11-06 17:29:00,
2013-11-06 12:34:00,63.4,43.4,28.25,South,181,8.0,16.0,48,0.00,,,0.41,WUHU216DAVISWMX,2013-11-06 17:34:00,
2013-11-06 12:39:00,63.9,44.4,28.24,South,183,4.0,10.0,49,0.00,,,0.41,WUHU216DAVISWMX,2013-11-06 17:39:00,
2013-11-06 12:44:00,64.2,44.1,28.25,SW,233,3.0,11.0,48,0.00,,,0.41,WUHU216DAVISWMX,2013-11-06 17:44:00,
2013-11-06 12:49:00,64.2,44.1,28.24,SW,233,0.0,14.0,48,0.00,,,0.41,WUHU216DAVISWMX,2013-11-06 17:49:00,
2013-11-06 12:54:00,64.5,43.8,28.24,SW,222,8.0,21.0,47,0.00,,,0.41,WUHU216DAVISWMX,2013-11-06 17:54:00,
2013-11-06 12:59:00,64.5,43.2,28.24,South,187,4.0,21.0,46,0.00,,,0.41,WUHU216DAVISWMX,2013-11-06 17:59:00,
2013-11-06 13:04:00,64.7,43.4,28.23,SSW,197,10.0,14.0,46,0.00,,,0.41,WUHU216DAVISWMX,2013-11-06 18:04:00,
2013-11-06 13:09:00,64.7,42.8,28.23,SSE,162,0.0,13.0,45,0.00,,,0.41,WUHU216DAVISWMX,2013-11-06 18:09:00,
2013-11-06 13:14:00,64.7,42.8,28.23,SSE,162,0.0,13.0,45,0.00,,,0.41,WUHU216DAVISWMX,2013-11-06 18:14:00,
2013-11-06 13:19:00,64.7,43.4,28.23,SSE,162,0.0,0.0,46,0.00,,,0.41,WUHU216DAVISWMX,2013-11-06 18:19:00,
2013-11-06 13:24:00,64.7,43.4,28.22,SSE,162,0.0,0.0,46,0.00,,,0.41,WUHU216DAVISWMX,2013-11-06 18:24:00,
2013-11-06 13:29:00,64.7,42.8,28.22,SSE,162,0.0,0.0,45,0.00,,,0.41,WUHU216DAVISWMX,2013-11-06 18:29:00,
2013-11-06 13:34:00,64.7,42.8,28.22,SW,230,0.0,12.0,45,0.00,,,0.41,WUHU216DAVISWMX,2013-11-06 18:34:00,
2013-11-06 13:39:00,64.7,42.8,28.21,SW,230,0.0,12.0,45,0.00,,,0.41,WUHU216DAVISWMX,2013-11-06 18:39:00,
2013-11-06 13:44:00,64.7,42.8,28.21,SW,230,0.0,0.0,45,0.00,,,0.41,WUHU216DAVISWMX,2013-11-06 18:44:00,
2013-11-06 13:49:00,64.7,42.8,28.21,SW,230,0.0,0.0,45,0.00,,,0.41,WUHU216DAVISWMX,2013-11-06 18:49:00,
2013-11-06 13:54:00,64.7,42.8,28.20,SW,230,0.0,0.0,45,0.00,,,0.41,WUHU216DAVISWMX,2013-11-06 18:54:00,
2013-11-06 13:59:00,64.7,42.2,28.20,SW,230,0.0,0.0,44,0.00,,,0.41,WUHU216DAVISWMX,2013-11-06 18:59:00,
2013-11-06 14:04:00,64.7,42.8,28.20,WSW,248,0.0,0.0,45,0.00,,,0.41,WUHU216DAVISWMX,2013-11-06 19:04:00,
2013-11-06 14:09:00,64.7,42.8,28.20,WSW,248,0.0,0.0,45,0.00,,,0.41,WUHU216DAVISWMX,2013-11-06 19:09:00,
2013-11-06 14:47:00,66.4,43.1,28.18,SSW,193,0.0,0.0,43,0.00,,,0.41,WUHU216DAVISWMX,2013-11-06 19:47:00,
2013-11-06 14:52:00,66.2,42.3,28.18,SW,225,0.0,15.0,42,0.00,,,0.41,WUHU216DAVISWMX,2013-11-06 19:52:00,
2013-11-06 14:57:00,65.7,42.5,28.18,South,169,8.0,20.0,43,0.00,,,0.41,WUHU216DAVISWMX,2013-11-06 19:57:00,
2013-11-06 15:02:00,65.3,42.1,28.18,South,182,8.0,20.0,43,0.00,,,0.41,WUHU216DAVISWMX,2013-11-06 20:02:00,
2013-11-06 15:07:00,65.3,42.1,28.18,SSW,210,0.0,12.0,43,0.00,,,0.41,WUHU216DAVISWMX,2013-11-06 20:07:00,
2013-11-06 15:12:00,65.2,42.0,28.17,SSW,198,0.0,12.0,43,0.00,,,0.41,WUHU216DAVISWMX,2013-11-06 20:12:00,
2013-11-06 15:17:00,65.0,42.5,28.17,SSE,164,12.0,13.0,44,0.00,,,0.41,WUHU216DAVISWMX,2013-11-06 20:17:00,
2013-11-06 15:22:00,65.0,42.5,28.17,South,177,0.0,13.0,44,0.00,,,0.41,WUHU216DAVISWMX,2013-11-06 20:22:00,
2013-11-06 15:27:00,65.0,42.5,28.17,South,177,0.0,12.0,44,0.00,,,0.41,WUHU216DAVISWMX,2013-11-06 20:27:00,
2013-11-06 15:32:00,65.0,42.5,28.17,South,177,0.0,0.0,44,0.00,,,0.41,WUHU216DAVISWMX,2013-11-06 20:32:00,
2013-11-06 15:37:00,65.0,42.5,28.17,South,177,0.0,0.0,44,0.00,,,0.41,WUHU216DAVISWMX,2013-11-06 20:37:00,
2013-11-06 15:42:00,65.0,42.5,28.17,South,177,0.0,0.0,44,0.00,,,0.41,WUHU216DAVISWMX,2013-11-06 20:42:00,
2013-11-06 15:47:00,65.0,42.5,28.17,South,177,0.0,0.0,44,0.00,,,0.41,WUHU216DAVISWMX,2013-11-06 20:47:00,
2013-11-06 15:52:00,65.0,42.5,28.16,SSW,208,0.0,0.0,44,0.00,,,0.41,WUHU216DAVISWMX,2013-11-06 20:52:00,
2013-11-06 15:57:00,65.0,42.5,28.16,SSW,208,0.0,0.0,44,0.00,,,0.41,WUHU216DAVISWMX,2013-11-06 20:57:00,